Wind_Speed
29 27 27 26 23 23 23 22 21 23 24 21 20 9 11 13 10 8 5 2 3 9 13 11 12 12 12 12 16 15 18 20 21 20 20 22 26 22 23 22 22 23 22
32 29 28 26 22 22 22 20 22 23 21 22 16 4 12 18 9 5 2 5 8 10 10 10 10 10 12 12 12 16 17 19 21 21 23 18 22 23 21 20 21 24 21
32 28 26 27 22 22 23 22 21 21 20 20 9 13 16 12 6 6 5 7 10 10 8 10 10 11 10 10 13 13 16 20 20 19 18 17 13 20 21 21 20 20 22
34 27 25 24 21 21 22 22 20 17 14 15 15 10 6 7 2 3 6 8 11 10 9 10 10 8 11 12 13 15 17 19 19 18 18 18 17 19 20 22 21 20 25
32 23 23 21 20 23 22 22 19 13 10 7 6 6 3 5 4 5 7 9 8 8 6 6 6 8 10 11 10 10 12 16 17 17 19 19 20 19 20 24 21 20 23
26 20 20 18 20 22 22 22 20 13 12 9 6 4 4 4 5 7 7 8 7 6 5 7 6 7 8 7 8 7 7 11 13 15 16 19 21 20 18 19 22 20 19
18 16 15 17 19 17 19 24 18 15 12 11 10 9 8 6 7 7 6 6 5 5 4 4 4 6 6 7 9 8 7 7 8 11 14 15 18 17 14 17 20 19 20
10 10 14 16 16 19 21 25 21 13 11 8 8 7 7 7 7 7 8 7 6 4 3 4 4 5 7 8 9 9 8 6 5 5 8 8 10 11 11 14 8 13 15
3 11 14 14 18 21 24 30 26 15 9 9 5 5 5 4 5 7 7 6 6 6 3 4 6 6 9 11 10 10 8 8 4 2 1 5 6 7 12 11 12 18 21
15 9 12 13 19 23 31 29 21 18 12 7 5 4 4 3 4 6 7 6 7 8 7 6 6 8 10 10 10 11 10 10 7 5 4 3 1 4 7 10 13 11 11
16 9 11 13 18 26 32 26 20 27 20 9 4 2 4 5 8 6 6 7 7 8 8 7 7 8 9 10 8 9 10 11 9 9 7 5 1 3 4 6 9 10 12
15 9 8 12 16 22 26 20 9 13 10 10 2 2 4 5 5 5 5 8 8 7 7 9 8 8 7 8 10 12 11 9 7 7 8 12 9 5 2 3 5 9 13
24 11 3 9 13 17 22 16 15 19 8 4 3 4 4 4 6 6 6 7 7 8 8 7 7 6 5 6 7 8 9 9 9 9 9 8 8 7 8 9 10 12 11
14 12 2 6 10 12 16 12 14 14 9 4 4 4 7 7 6 6 6 7 8 8 9 8 7 4 4 3 3 3 3 3 4 6 7 8 9 10 12 12 13 14 15
14 8 6 7 7 11 14 16 10 11 7 6 6 8 7 8 7 7 8 6 8 8 9 8 8 6 4 3 4 5 6 8 9 11 12 12 13 13 14 15 16 16 18
31 7 8 10 9 8 14 13 10 8 10 4 7 7 6 9 12 9 8 9 8 7 10 10 9 9 9 9 10 12 13 15 16 16 17 16 16 15 15 14 14 16 18
29 22 9 11 11 13 14 11 11 6 7 3 1 0 5 9 11 13 12 11 10 9 9 10 9 9 10 11 12 14 16 16 16 16 17 17 18 19 20 21 20 21 21
20 18 17 13 16 14 19 17 10 11 7 5 6 4 7 10 11 11 11 11 12 11 11 11 10 10 11 10 10 12 13 15 18 20 22 22 23 24 24 24 24 24 25
12 18 16 18 16 19 24 24 17 11 9 11 13 13 13 12 12 12 12 13 12 11 10 7 6 5 8 12 14 17 19 21 22 23 25 28 28 28 28 27 27 27 28
13 17 14 14 18 20 30 27 27 3 8 12 15 16 16 15 21 16 15 13 10 8 7 5 8 12 16 19 21 24 26 25 25 26 27 30 31 31 31 30 31 31 30
10 13 13 12 15 19 25 20 8 9 13 15 16 16 17 19 16 11 12 13 12 12 13 17 20 21 22 21 22 22 25 27 29 30 30 32 34 35 36 35 34 34 33
11 12 12 12 13 15 16 17 18 19 17 19 20 19 17 20 18 15 13 14 15 17 20 22 24 24 24 23 23 25 28 30 31 33 36 37 36 34 34 34 34 33 32
13 15 16 16 14 14 17 18 20 20 20 19 20 22 21 22 23 21 21 20 21 22 23 24 26 27 28 29 29 31 32 35 36 37 37 37 39 39 39 37 36 34 34
17 17 23 21 19 19 20 22 21 20 20 21 23 22 24 25 28 28 28 25 26 28 28 28 30 31 31 32 34 35 39 41 41 40 41 40 41 42 41 38 38 37 37
24 23 24 26 24 22 24 25 24 24 23 23 26 28 28 27 27 26 31 32 33 33 33 33 33 34 34 34 36 40 42 42 42 43 42 40 41 42 39 39 40 40 39
25 25 25 28 28 27 27 27 27 29 28 28 29 28 24 27 28 29 30 33 35 35 35 34 34 36 35 37 40 41 43 43 42 41 40 41 41 39 38 39 40 41 42
Wind_Direction
350 348 345 339 344 348 353 352 354 352 346 332 325 262 194 197 191 188 189 258 288 273 274 279 274 284 276 262 262 255 255 254 255 251 254 263 241 234 238 245 245 238 238
339 339 340 334 336 343 359 353 354 350 346 348 347 197 201 182 168 174 220 287 306 302 282 276 294 296 276 275 260 261 259 255 259 254 255 251 253 225 238 243 236 233 232
333 333 334 327 331 343 355 357 357 350 358 358 14 120 133 135 155 196 235 291 312 306 279 268 275 278 275 275 273 270 263 257 257 256 256 245 237 226 234 240 236 230 234
329 327 328 325 331 341 346 347 352 347 9 6 8 27 85 130 136 300 284 306 314 309 290 279 272 275 288 283 279 275 271 269 259 257 252 251 255 241 244 246 242 230 235
317 318 324 326 328 336 339 341 345 335 332 359 31 50 130 167 216 280 306 304 302 283 295 278 277 291 299 296 296 283 271 265 263 254 253 250 246 248 246 248 238 244 244
304 320 316 320 324 332 339 339 342 337 308 317 320 333 355 349 328 323 303 302 310 309 316 312 306 315 321 315 329 316 290 271 265 256 257 257 245 241 235 248 227 232 243
300 306 312 313 324 336 345 342 336 331 308 306 312 309 311 322 339 328 322 317 332 336 316 300 277 320 337 352 356 340 327 286 267 260 258 265 239 229 229 234 238 231 238
308 310 303 315 325 331 336 339 333 324 298 287 302 309 312 300 307 343 356 349 0 346 22 38 19 14 12 16 16 16 3 347 311 269 253 243 239 228 225 238 241 239 244
264 293 303 319 337 337 328 327 326 313 279 258 265 298 313 291 307 346 5 7 13 11 1 17 46 43 38 30 25 26 33 37 38 37 18 224 242 249 242 241 245 237 249
284 291 303 316 335 335 331 326 313 298 261 241 224 275 322 328 327 342 357 17 22 24 18 19 41 39 34 30 25 21 33 47 47 51 44 38 292 253 247 244 256 282 260
267 267 290 313 333 341 336 332 312 287 207 186 218 274 341 342 353 334 346 12 22 11 2 5 5 26 25 23 28 29 38 50 57 59 45 38 43 247 263 269 275 271 268
243 248 289 308 333 350 342 329 322 270 187 146 195 326 7 351 331 321 355 6 12 7 352 355 353 11 29 38 58 60 58 60 67 67 60 58 58 38 345 307 295 288 283
217 209 255 300 338 355 355 350 68 68 76 88 80 40 10 352 319 332 9 0 359 359 359 349 346 356 33 53 53 54 56 58 50 44 39 35 28 16 356 337 323 309 306
323 200 207 280 325 345 355 13 48 72 61 52 46 31 8 333 324 347 347 346 336 345 347 346 336 346 13 29 26 17 357 1 345 337 335 333 327 322 315 309 305 305 307
313 223 253 285 306 321 336 0 33 20 2 11 23 12 345 327 325 348 319 326 318 330 331 327 325 324 307 314 317 304 297 301 303 310 312 312 310 306 302 295 289 289 290
290 231 255 261 251 293 301 330 352 357 359 351 5 352 351 329 323 334 306 303 308 324 315 312 316 310 306 306 306 302 303 303 304 305 307 310 313 312 308 305 301 295 286
306 299 266 266 254 266 277 288 311 318 0 337 196 303 358 331 334 325 327 315 310 310 309 309 307 307 309 313 311 307 309 312 313 316 318 318 315 313 311 309 306 302 300
289 279 274 254 246 249 263 262 273 283 294 315 350 328 336 324 324 322 315 316 314 309 304 293 297 303 308 317 325 324 326 326 320 318 317 315 311 310 310 309 306 305 301
337 267 279 268 265 264 268 254 235 251 354 341 326 326 319 317 311 316 317 311 312 316 318 313 302 304 326 323 327 320 315 315 314 312 312 313 310 309 307 302 299 297 299
251 261 267 268 268 269 273 246 243 75 332 317 318 316 310 321 329 307 304 301 310 312 317 328 319 315 314 313 314 312 311 315 314 312 311 311 309 307 304 301 301 300 298
258 262 274 286 281 277 287 330 302 333 312 317 308 305 304 313 325 317 294 297 295 301 304 312 312 310 308 310 311 312 315 315 312 313 313 312 310 308 308 308 308 307 304
281 276 284 282 283 284 288 293 300 294 304 302 304 300 286 295 309 308 303 295 293 297 300 307 308 308 306 304 307 309 311 313 314 314 313 311 309 307 306 304 304 303 299
276 284 283 289 288 289 283 278 284 298 300 302 298 292 289 284 294 295 296 296 296 297 302 307 310 309 306 306 308 310 312 315 316 315 312 310 309 309 308 307 306 303 299
295 291 289 295 290 288 284 282 287 291 294 293 288 291 293 292 285 285 288 292 294 296 300 303 306 306 305 305 305 308 310 312 311 309 308 305 305 305 306 304 302 299 298
276 275 275 281 283 282 280 281 285 288 285 290 284 288 283 282 290 285 279 284 292 294 295 296 298 302 303 303 307 310 309 308 307 306 305 303 303 302 301 299 297 296 295
271 269 265 269 271 275 273 275 279 282 286 286 285 292 286 276 281 289 287 284 288 291 293 296 298 301 302 304 308 308 306 305 305 306 303 302 301 300 299 299 298 299 298
Height
5926 5923 5920 5916 5912 5908 5904 5899 5895 5890 5886 5881 5876 5874 5877 5879 5880 5881 5881 5883 5882 5881 5880 5878 5878 5876 5875 5875 5874 5874 5874 5874 5874 5875 5875 5876 5877 5879 5881 5882 5885 5889 5889
5927 5923 5919 5916 5912 5907 5903 5899 5894 5889 5885 5880 5872 5870 5872 5875 5878 5879 5878 5878 5880 5878 5877 5876 5874 5872 5871 5872 5871 5871 5869 5869 5869 5870 5871 5871 5872 5874 5875 5877 5879 5882 5884
5925 5922 5918 5915 5910 5905 5901 5898 5894 5890 5884 5881 5876 5873 5873 5876 5879 5880 5879 5878 5877 5876 5874 5874 5873 5871 5869 5868 5867 5866 5865 5864 5865 5866 5867 5866 5866 5868 5870 5871 5874 5877 5879
5925 5920 5916 5913 5907 5904 5900 5897 5894 5890 5886 5883 5879 5877 5877 5878 5879 5879 5878 5877 5876 5873 5873 5872 5871 5869 5867 5865 5865 5862 5861 5860 5860 5862 5863 5863 5864 5864 5865 5867 5869 5871 5873
5923 5917 5912 5908 5904 5900 5897 5894 5893 5889 5886 5885 5883 5882 5881 5880 5880 5879 5876 5875 5875 5874 5871 5870 5869 5867 5865 5862 5861 5860 5857 5855 5855 5857 5857 5859 5860 5861 5862 5862 5865 5866 5868
5921 5914 5910 5905 5902 5899 5895 5893 5891 5890 5886 5883 5882 5881 5880 5879 5878 5878 5877 5874 5873 5872 5869 5868 5866 5866 5863 5861 5857 5857 5855 5853 5852 5853 5854 5854 5855 5857 5858 5858 5859 5861 5864
5914 5912 5908 5903 5902 5898 5895 5891 5889 5886 5885 5883 5881 5879 5879 5878 5876 5876 5875 5873 5871 5870 5869 5867 5866 5864 5861 5859 5856 5853 5852 5852 5851 5850 5850 5850 5851 5853 5854 5854 5855 5858 5860
5908 5908 5907 5904 5900 5897 5894 5890 5885 5883 5882 5880 5880 5878 5877 5877 5877 5875 5872 5871 5870 5870 5868 5867 5865 5862 5860 5858 5855 5853 5851 5850 5849 5848 5848 5848 5849 5849 5852 5853 5852 5855 5856
5900 5905 5906 5902 5899 5894 5890 5885 5882 5880 5878 5877 5877 5877 5876 5876 5876 5876 5873 5870 5870 5869 5868 5866 5865 5862 5859 5857 5855 5853 5850 5849 5848 5848 5848 5848 5849 5849 5850 5851 5851 5850 5851
5906 5901 5903 5901 5896 5891 5885 5878 5875 5874 5874 5875 5874 5875 5875 5875 5874 5874 5873 5870 5869 5869 5867 5865 5864 5861 5859 5857 5856 5853 5850 5849 5848 5848 5848 5848 5848 5849 5850 5850 5848 5846 5847
5903 5899 5901 5898 5894 5889 5880 5873 5867 5865 5862 5872 5875 5872 5872 5872 5871 5872 5871 5869 5868 5867 5867 5864 5863 5860 5858 5856 5855 5854 5852 5850 5849 5849 5848 5848 5848 5849 5850 5849 5848 5847 5845
5898 5896 5897 5896 5893 5887 5880 5871 5861 5857 5862 5867 5873 5872 5870 5871 5871 5870 5869 5868 5866 5866 5865 5863 5863 5860 5859 5857 5856 5854 5853 5852 5852 5851 5850 5849 5849 5848 5848 5847 5846 5845 5843
5893 5889 5889 5894 5890 5887 5884 5874 5864 5866 5871 5872 5872 5872 5871 5871 5871 5869 5867 5866 5865 5865 5863 5862 5861 5860 5858 5857 5857 5856 5856 5855 5854 5853 5852 5851 5850 5849 5848 5846 5845 5843 5841
5885 5883 5882 5889 5886 5887 5884 5878 5871 5870 5872 5873 5872 5872 5869 5869 5870 5867 5866 5865 5864 5864 5862 5861 5860 5858 5857 5857 5857 5857 5856 5855 5854 5853 5852 5851 5849 5847 5846 5845 5843 5841 5839
5883 5879 5880 5885 5883 5884 5884 5879 5874 5873 5874 5872 5871 5871 5869 5868 5868 5865 5866 5864 5863 5861 5860 5859 5858 5857 5856 5855 5856 5856 5855 5854 5853 5852 5850 5849 5847 5845 5843 5841 5839 5837 5834
5870 5871 5876 5879 5880 5881 5882 5879 5876 5873 5871 5869 5869 5871 5870 5868 5866 5863 5864 5862 5860 5859 5858 5858 5856 5854 5854 5853 5853 5852 5851 5850 5848 5846 5845 5843 5841 5839 5837 5835 5834 5832 5830
5872 5863 5872 5872 5875 5879 5879 5878 5874 5872 5868 5867 5867 5867 5868 5867 5863 5862 5860 5859 5856 5855 5857 5856 5853 5852 5850 5849 5849 5848 5847 5845 5843 5841 5840 5838 5835 5833 5830 5828 5825 5823 5821
5867 5866 5870 5868 5865 5871 5871 5872 5870 5869 5865 5863 5862 5865 5865 5863 5861 5860 5858 5856 5855 5852 5852 5852 5851 5849 5847 5846 5846 5844 5843 5842 5839 5836 5833 5832 5829 5827 5824 5821 5819 5816 5814
5865 5867 5867 5866 5868 5865 5863 5864 5859 5858 5857 5860 5862 5861 5859 5859 5858 5857 5855 5854 5853 5849 5849 5848 5847 5845 5843 5842 5841 5839 5838 5837 5834 5831 5828 5825 5823 5820 5817 5814 5811 5808 5805
5867 5866 5864 5862 5861 5860 5858 5850 5849 5853 5857 5858 5858 5858 5858 5854 5853 5852 5852 5851 5849 5847 5846 5845 5843 5842 5840 5838 5836 5834 5832 5831 5828 5826 5822 5818 5815 5812 5808 5805 5802 5799 5796
5862 5863 5860 5856 5856 5856 5855 5850 5852 5854 5856 5856 5855 5855 5854 5853 5851 5849 5848 5847 5845 5844 5842 5840 5839 5838 5836 5834 5832 5829 5825 5824 5822 5818 5815 5812 5808 5804 5799 5795 5791 5788 5785
5857 5858 5856 5855 5855 5854 5852 5852 5851 5853 5851 5852 5852 5851 5851 5850 5848 5846 5845 5843 5840 5840 5839 5836 5835 5832 5830 5828 5826 5824 5821 5817 5813 5810 5806 5803 5799 5796 5792 5788 5784 5780 5777
5852 5851 5851 5852 5849 5849 5849 5847 5847 5846 5847 5848 5847 5846 5845 5844 5843 5842 5840 5838 5837 5835 5833 5831 5829 5826 5823 5821 5818 5815 5813 5809 5805 5801 5798 5794 5790 5786 5781 5778 5774 5771 5767
5844 5846 5845 5842 5843 5844 5845 5843 5842 5841 5842 5842 5841 5841 5840 5838 5837 5835 5834 5833 5831 5829 5827 5824 5821 5819 5816 5813 5810 5807 5803 5800 5797 5793 5789 5785 5780 5775 5771 5768 5764 5759 5756
5841 5841 5840 5839 5840 5839 5839 5838 5837 5837 5837 5836 5835 5834 5833 5831 5830 5828 5827 5825 5824 5822 5820 5817 5815 5811 5808 5805 5801 5797 5794 5790 5786 5782 5778 5773 5768 5764 5761 5756 5752 5749 5746
5834 5834 5834 5834 5834 5833 5833 5831 5830 5830 5830 5830 5829 5827 5824 5824 5823 5821 5819 5818 5816 5814 5811 5809 5806 5803 5799 5796 5792 5788 5784 5779 5775 5771 5766 5762 5757 5754 5750 5746 5742 5738 5733